Theta_e
331 332 333 332 334 333 332 333 334 333 332 332 331 331 330 331 332 333 332 332 333 332 333 329 329 328 327 327 326 330 331 331 333 330 330 330 331 329 327 327 325 327 328 328 328 329 331 331 330 331 332 329 326 327 324 323 326 325 324 321 321 319 317 313 308 309 313 313 311 309 310 310 309 310 309 309 310 310 312 309 305 304 305 304 303
330 332 332 331 333 332 333 334 333 331 331 331 330 330 331 332 333 331 331 332 331 329 330 330 329 328 325 323 326 327 330 329 331 331 328 328 328 331 330 328 324 325 327 325 327 330 330 328 330 329 329 326 325 321 321 323 317 317 318 321 317 324 319 313 310 309 307 310 309 310 310 311 308 310 309 309 309 310 310 307 306 306 307 307 304
330 332 329 330 332 333 333 333 332 331 330 330 329 329 331 331 331 331 331 331 330 330 331 330 329 328 325 326 323 327 329 328 330 330 330 327 325 327 329 328 325 326 326 324 324 326 328 329 327 328 328 324 324 324 324 321 317 316 317 317 317 321 316 315 312 311 309 310 312 308 308 309 309 309 310 311 311 312 309 306 306 307 309 310 307
331 330 331 331 331 332 332 332 332 330 330 330 329 330 331 330 330 331 330 331 328 332 331 327 329 330 325 324 323 325 329 327 330 329 325 326 325 325 325 325 326 325 326 325 323 324 325 326 325 325 325 322 323 323 322 323 321 317 317 318 319 317 320 320 318 313 312 311 309 307 309 308 310 311 311 311 310 310 310 308 308 307 308 310 310
327 328 329 327 329 329 331 332 330 330 329 330 330 330 330 330 330 330 331 330 329 331 329 330 328 328 327 323 321 323 327 325 327 328 327 328 326 326 325 325 327 326 325 325 328 325 325 325 324 324 325 325 323 320 322 323 319 318 318 316 317 320 323 322 319 316 315 313 311 313 310 310 310 310 311 309 310 310 311 310 309 309 308 309 312
327 326 327 327 328 329 330 331 329 329 329 330 329 329 330 330 330 330 329 328 329 333 328 331 327 325 323 322 320 322 324 326 325 324 322 326 326 323 324 326 325 325 325 323 324 326 324 324 326 325 325 324 323 324 321 320 321 320 319 317 316 320 320 320 320 320 316 315 314 313 310 309 308 309 310 311 310 309 309 310 311 311 310 309 306
325 326 326 326 329 328 326 328 330 329 328 329 330 329 329 330 329 328 329 329 328 328 327 330 330 326 322 323 321 325 324 324 326 325 322 324 323 322 326 325 327 324 324 324 324 324 324 324 324 326 324 324 325 324 323 323 322 321 318 320 319 317 322 317 316 316 318 316 316 315 315 315 311 308 310 312 312 311 309 309 309 310 312 311 306
326 326 326 326 325 324 326 326 328 330 330 329 329 328 328 328 328 326 327 327 326 324 322 325 329 325 325 324 321 325 322 316 313 316 322 324 324 326 325 326 324 324 325 325 325 325 325 324 325 325 325 324 324 324 323 323 322 320 321 319 322 320 322 320 321 318 316 316 315 314 315 316 311 314 312 311 308 309 311 311 308 309 312 312 308
325 324 326 326 327 326 325 327 327 329 330 328 328 328 327 328 327 327 327 326 326 326 326 324 326 326 323 324 322 318 315 312 306 305 309 321 329 326 325 324 324 323 324 323 324 325 323 324 321 319 320 316 309 310 311 315 322 322 322 322 320 322 319 319 319 318 316 317 316 317 314 313 313 314 311 310 310 310 313 311 311 313 312 313 312
325 325 325 326 326 327 327 326 326 327 326 326 327 327 327 327 327 325 323 323 326 324 324 324 324 327 321 321 320 316 311 307 300 296 299 306 319 321 326 326 324 324 323 322 323 325 323 321 321 319 315 314 308 301 300 302 308 314 315 318 320 321 320 320 318 317 317 315 313 314 313 312 311 313 313 314 314 315 314 314 310 311 311 310 312
324 325 325 325 325 326 327 326 325 324 325 326 326 325 326 326 325 324 322 322 324 324 324 324 324 323 321 319 315 313 307 302 295 294 295 297 310 321 326 324 325 322 324 321 322 324 324 323 320 321 319 319 310 301 300 300 299 298 299 302 308 317 317 317 318 318 315 315 314 314 313 312 314 317 315 315 314 313 312 312 313 313 309 307 305
323 323 323 324 324 325 326 326 324 324 326 323 324 325 325 325 325 325 324 324 324 325 323 322 321 320 318 316 315 311 305 296 292 294 295 295 299 315 321 325 327 326 323 324 323 323 323 323 322 323 323 322 321 318 313 302 301 299 297 296 296 295 300 315 316 315 317 316 315 315 314 313 314 315 315 315 314 314 314 313 311 310 308 307 307
317 320 322 323 323 324 323 322 321 321 320 321 323 323 323 323 323 323 323 324 324 322 318 317 317 317 315 311 308 306 304 294 292 293 294 294 293 309 320 322 326 324 324 323 323 323 325 326 324 326 326 326 322 324 321 316 300 299 306 309 309 306 299 297 299 311 315 315 314 314 315 316 314 315 317 317 317 313 313 312 312 311 311 310 309
309 311 315 318 322 322 320 319 318 317 317 317 318 319 319 320 321 321 321 321 320 317 314 312 311 309 308 305 302 300 297 293 292 292 293 293 293 304 323 326 323 322 321 323 322 322 324 323 323 321 324 325 324 323 324 324 322 320 319 319 319 317 310 303 299 296 299 311 314 315 317 319 317 318 320 321 318 315 314 313 314 313 313 312 314
305 306 308 311 315 317 316 316 314 314 314 314 314 314 315 316 317 318 318 317 317 314 311 309 307 306 305 303 301 298 296 291 291 292 292 293 297 307 325 327 323 321 322 322 322 321 324 325 323 323 322 321 308 303 318 322 321 321 318 318 318 319 319 319 319 319 316 314 312 314 316 319 320 321 321 320 320 320 320 318 317 315 316 314 313
302 303 304 306 309 312 313 313 313 313 312 312 312 311 311 311 312 314 314 314 314 314 312 310 307 305 304 302 300 299 297 291 291 292 292 292 303 321 323 322 320 320 320 318 319 321 322 322 322 320 322 316 298 294 297 309 320 320 317 317 316 317 317 315 310 310 315 319 320 320 321 316 307 312 310 310 312 315 316 317 316 313 313 311 310
302 302 302 303 304 306 309 310 310 310 311 311 311 310 309 310 311 313 311 311 311 311 311 310 308 305 303 301 300 298 297 293 291 292 292 291 303 319 319 317 319 321 317 319 320 321 316 319 322 323 316 304 295 294 295 304 319 320 320 318 318 319 319 322 313 302 298 298 299 298 296 293 293 296 295 296 306 308 310 309 309 311 310 308 309
303 303 303 303 303 304 304 305 306 307 307 306 306 307 309 311 312 313 311 310 309 310 311 310 309 307 305 302 301 299 297 295 291 292 292 293 299 315 314 315 315 315 318 321 321 318 310 309 316 313 307 301 292 293 296 309 315 316 316 317 318 317 316 318 320 319 300 298 297 296 295 295 296 295 296 296 296 300 309 308 310 310 310 309 308
302 303 303 304 304 303 303 303 303 304 304 305 305 305 305 306 308 309 309 308 308 308 308 307 307 308 308 306 306 301 299 297 292 291 292 293 303 311 310 309 308 309 310 310 314 315 307 301 299 299 299 294 290 291 294 304 312 311 312 312 314 315 312 311 314 315 316 317 317 315 310 305 304 306 309 298 296 300 309 311 311 310 309 309 309
302 303 304 304 305 304 304 303 302 302 302 303 305 305 305 305 305 306 306 306 306 306 306 304 303 303 303 303 305 305 301 297 294 291 292 293 296 305 306 304 303 303 305 306 308 310 310 305 299 291 291 290 290 290 291 293 304 307 309 310 311 313 307 308 310 311 311 312 314 317 318 319 318 313 313 309 302 305 307 310 311 311 310 310 309
302 302 303 303 303 304 305 305 304 303 303 303 304 304 305 305 305 304 304 304 304 304 304 304 303 303 303 303 302 303 302 298 295 291 291 292 293 299 303 301 300 301 303 304 306 307 308 309 299 292 290 291 291 290 291 291 294 303 305 307 309 301 299 305 306 303 308 310 312 314 316 316 317 316 314 315 310 308 307 307 309 310 310 309 308
300 301 301 302 302 303 304 304 305 305 305 303 303 303 303 303 304 305 303 304 304 303 303 304 304 304 304 303 302 302 301 299 296 292 291 291 291 293 300 299 297 301 304 305 307 308 308 308 299 294 291 292 291 291 290 291 290 299 303 298 296 294 301 302 304 306 308 309 310 310 312 313 312 313 313 311 310 310 309 308 308 307 305 305 304
300 301 301 301 302 302 302 303 303 304 304 305 305 304 304 303 303 303 303 304 304 304 304 304 303 303 303 304 302 301 301 299 294 295 291 291 291 291 291 295 291 302 302 301 301 302 304 301 300 295 291 291 291 291 291 290 291 298 296 294 293 292 293 301 303 304 304 305 306 307 308 310 311 311 310 307 309 309 307 307 306 303 303 302 301
299 300 300 302 302 302 302 303 304 304 304 304 304 305 306 305 307 307 304 303 303 304 303 305 304 304 303 304 304 301 300 299 295 294 293 291 291 290 292 291 290 296 297 299 300 302 299 299 297 292 292 292 291 291 291 290 292 291 290 291 291 292 298 300 301 303 302 301 302 304 305 307 309 309 309 309 306 306 308 306 304 303 301 300 301
299 298 298 299 300 301 302 302 303 303 304 305 304 303 305 307 304 308 306 305 306 305 305 306 306 305 305 304 303 303 303 302 299 295 292 291 290 290 291 290 291 289 298 301 301 300 293 291 292 293 292 292 292 292 294 294 293 291 291 290 292 297 300 301 302 303 302 301 304 306 306 307 309 308 307 306 306 306 304 304 302 300 300 299 298
297 298 298 299 299 301 301 301 302 303 303 303 303 303 302 302 301 302 303 304 305 303 303 303 302 303 304 303 302 304 305 304 302 300 297 295 294 290 288 288 290 290 292 295 291 291 290 291 291 291 293 294 297 298 298 300 295 293 291 290 297 299 300 302 302 302 303 303 304 305 306 307 307 305 305 304 303 302 302 300 299 298 298 296 295
298 298 298 298 299 299 299 298 298 298 298 300 302 302 302 299 298 297 298 298 301 301 301 300 301 301 302 303 303 300 298 297 296 296 296 296 296 297 300 300 296 294 298 298 296 297 297 296 296 293 293 293 292 292 292 293 294 297 299 299 299 300 301 301 302 303 302 302 300 302 305 305 305 303 301 301 301 299 299 297 297 295 295 295 295
300 300 299 299 299 299 299 293 295 296 296 296 297 298 299 298 295 294 294 294 296 297 298 297 297 299 300 300 301 299 296 293 292 292 292 293 294 295 296 297 296 296 296 293 292 294 295 294 296 299 300 300 300 298 298 298 297 296 299 300 302 301 300 300 300 304 304 303 302 302 300 301 302 303 301 299 299 298 297 297 296 295 295 296 293
298 299 299 300 299 298 300 300 298 297 295 294 294 293 294 297 294 293 293 293 293 294 296 295 295 298 298 296 296 296 294 291 290 288 289 288 288 292 293 293 293 293 292 288 290 293 295 296 296 297 299 295 294 298 299 300 297 300 303 302 301 302 302 301 301 301 301 301 298 297 295 297 297 299 300 299 298 298 298 298 298 297 297 295 292
300 298 297 297 297 298 301 301 300 298 296 295 294 294 289 289 293 294 291 289 288 289 290 291 292 295 297 294 294 293 291 291 288 287 288 288 288 288 288 288 288 289 289 288 288 288 289 290 292 293 292 295 293 292 292 294 293 293 296 294 296 299 298 300 301 299 297 295 297 292 292 291 292 294 296 296 295 294 293 293 294 293 291 291 290
300 298 297 296 295 299 299 300 302 302 301 299 297 293 293 293 288 288 290 289 289 288 288 288 288 288 293 293 289 288 288 288 288 288 288 288 288 288 288 288 288 288 288 288 288 288 290 291 291 293 293 295 292 292 292 293 292 292 293 294 295 294 294 297 298 294 292 291 291 290 289 289 288 289 291 291 292 293 292 292 293 293 293 292 291
295 296 299 298 298 297 300 300 302 303 302 302 300 296 295 293 292 289 288 288 288 288 288 288 288 288 288 290 294 293 289 288 288 288 289 289 288 288 288 288 288 288 287 287 287 290 291 292 292 292 294 292 292 292 293 293 293 293 292 292 292 292 294 295 296 295 291 291 290 289 287 287 287 288 289 289 289 290 290 289 289 288 289 290 289
297 297 298 297 299 298 298 299 301 300 301 300 302 300 297 295 293 292 290 288 288 288 288 288 288 288 288 288 288 288 288 288 288 289 289 289 289 289 289 289 288 286 286 288 290 291 292 293 295 296 296 294 295 294 294 295 294 293 294 292 293 294 297 296 292 293 290 290 289 287 286 287 288 288 288 288 288 288 288 288 290 290 289 287 287
298 297 296 296 298 302 302 300 299 302 301 300 300 298 298 301 298 296 293 292 291 290 289 288 289 288 288 288 288 288 288 289 289 289 289 289 290 290 289 290 288 287 289 290 292 292 294 294 295 295 296 295 294 293 293 294 294 294 293 294 294 295 295 296 294 291 289 289 288 287 288 289 288 288 288 288 288 288 288 287 288 287 287 287 287
298 294 290 294 298 298 298 298 298 297 299 300 301 300 300 301 301 298 297 294 294 293 292 292 289 288 290 289 288 288 289 289 290 289 290 289 290 289 292 294 291 291 294 296 294 294 293 294 294 294 295 294 294 293 293 295 294 293 292 291 292 292 291 290 290 291 289 288 288 288 288 288 288 288 287 287 287 287 287 287 287 288 288 287 287
298 302 300 300 299 298 298 298 297 297 298 297 298 298 300 298 298 300 298 297 297 295 294 294 293 290 290 291 289 289 288 289 289 288 288 289 289 291 291 290 291 292 291 293 294 294 293 293 293 293 294 294 294 293 295 294 294 294 294 292 289 289 289 288 288 289 289 289 289 289 289 288 288 288 288 288 287 287 287 287 287 287 287 287 287
297 296 296 296 298 299 301 298 298 297 293 293 295 298 300 300 297 296 295 296 296 297 295 295 294 294 292 293 290 289 288 289 289 289 289 289 290 293 293 291 291 292 291 292 292 292 292 292 292 292 293 293 293 293 293 294 294 293 291 292 291 289 288 288 288 288 289 288 288 288 288 288 288 288 287 287 287 287 287 287 287 286 287 286 286
298 296 296 296 299 299 299 298 296 292 293 296 299 298 297 298 297 294 293 292 293 293 296 295 293 294 294 295 296 296 295 289 289 290 291 291 291 290 291 291 292 291 292 292 292 292 291 291 292 292 292 292 292 292 291 292 291 290 290 289 289 288 289 289 288 288 288 288 288 288 288 288 288 287 287 287 286 286 286 286 286 286 286 286 286
297 291 289 290 292 297 296 296 295 296 296 296 295 294 292 293 294 295 295 294 293 294 294 295 294 293 294 294 295 295 295 293 290 290 290 290 291 291 292 292 292 291 291 291 291 291 291 291 291 291 291 291 291 291 292 289 290 289 289 289 289 289 289 289 288 288 288 288 288 288 288 287 288 288 287 287 287 286 286 287 286 286 286 285 286
295 296 293 290 296 295 295 293 295 296 296 296 295 296 296 296 294 294 294 293 292 293 294 293 293 293 294 294 292 292 292 291 290 290 289 289 290 292 292 290 291 291 290 290 290 291 291 291 291 290 290 290 291 291 291 289 289 289 289 289 289 288 288 288 288 288 288 287 287 288 288 288 288 287 287 287 287 288 287 287 286 286 287 286 287
298 296 293 293 292 298 295 294 296 294 295 294 295 296 294 293 294 293 293 292 292 291 292 293 292 294 294 290 289 289 293 291 292 291 290 290 290 291 291 291 291 291 290 289 289 290 290 290 290 289 289 289 290 289 290 290 289 289 289 289 288 288 288 288 288 288 287 288 288 288 288 288 288 288 287 287 288 287 287 286 287 287 286 286 286
299 296 296 296 294 295 296 295 293 292 294 295 296 294 292 293 293 293 292 291 291 291 292 293 293 294 292 290 289 288 292 292 293 291 290 292 292 291 290 292 293 292 291 290 290 288 289 290 289 289 288 289 289 289 289 289 288 288 288 289 288 288 288 288 288 288 288 287 287 287 286 286 286 286 287 288 286 286 286 287 287 286 286 286 286
298 297 297 299 297 296 295 297 295 295 295 295 294 292 292 294 295 292 293 292 292 292 292 292 294 294 294 291 290 289 294 293 290 291 291 289 291 289 290 290 291 292 292 292 292 291 290 289 288 288 288 289 289 289 289 289 288 288 288 288 288 288 287 287 286 286 286 286 286 286 287 287 287 287 286 287 287 286 286 286 286 286 286 287 287
297 297 298 297 296 296 295 296 295 294 294 292 292 292 294 294 295 296 294 294 291 292 292 292 292 293 292 291 290 292 293 293 293 291 291 289 290 289 289 289 290 290 290 290 290 290 290 289 288 288 289 289 288 288 288 288 289 289 289 288 287 287 287 287 286 287 287 287 287 287 287 287 287 287 287 287 286 287 287 287 286 286 286 286 286
298 297 298 298 299 295 295 296 293 293 293 292 296 296 293 295 296 294 293 294 291 293 293 293 292 292 292 293 293 294 292 291 289 290 290 290 289 289 289 289 288 288 288 288 288 288 288 288 288 288 288 289 289 289 289 289 289 289 289 288 288 287 287 286 286 286 286 287 286 286 286 285 285 285 286 286 286 285 285 285 286 286 285 285 285
298 297 296 297 297 298 296 295 292 295 294 294 295 295 296 297 296 295 293 294 293 294 292 293 292 292 292 291 292 290 291 292 291 290 290 289 290 289 289 287 287 288 288 287 287 287 287 287 287 287 286 286 287 288 289 289 289 289 289 288 287 287 286 286 287 287 286 287 287 287 287 287 285 286 286 285 285 286 286 286 286 286 285 285 286
299 297 297 298 297 295 294 298 295 294 294 294 295 295 294 295 296 293 291 293 294 292 293 293 292 292 292 292 291 292 292 291 291 290 290 291 290 290 288 288 288 288 287 288 286 287 286 286 286 286 286 286 287 288 289 288 287 287 287 286 285 285 284 284 286 287 286 287 287 286 286 287 286 286 286 286 286 286 287 286 287 286 287 286 285
298 297 297 298 299 296 297 294 294 291 293 293 294 295 293 293 294 293 293 294 294 293 293 294 294 294 293 293 292 292 291 291 291 290 291 289 289 289 289 288 288 287 288 287 287 286 287 287 287 287 287 286 287 287 287 288 287 287 286 284 283 282 282 282 285 285 285 286 287 286 287 286 286 286 285 285 284 285 285 285 286 286 285 285 286
297 297 297 296 296 296 296 293 293 294 294 294 293 293 292 293 294 295 293 293 293 294 294 295 295 295 294 294 294 291 292 291 292 291 290 290 290 288 288 288 288 288 287 287 287 286 286 287 287 286 286 286 287 286 286 285 285 285 284 283 281 280 281 281 283 282 282 285 286 287 285 284 284 285 285 285 285 285 285 284 284 284 285 285 285
297 297 296 296 297 296 296 297 297 295 294 294 294 293 292 293 293 293 293 294 294 295 295 296 296 296 295 294 292 293 292 291 292 291 291 289 290 289 288 288 288 287 287 287 287 287 287 286 286 286 286 286 286 285 284 284 283 282 281 281 279 280 279 280 281 281 281 282 285 286 286 285 285 285 285 285 285 284 284 284 284 284 284 284 285
297 296 296 297 296 296 297 297 297 297 296 294 294 294 292 293 293 294 294 294 294 294 295 296 295 296 295 295 293 294 292 293 293 292 291 290 290 289 288 287 288 287 288 287 287 287 287 287 286 286 286 285 285 284 283 282 281 280 279 278 278 279 279 279 280 279 279 280 284 286 285 284 283 284 284 284 283 283 283 283 283 282 283 283 284
Wind_Speed
10 9 8 9 10 10 11 10 9 8 8 8 8 7 6 6 6 5 5 4 4 3 3 4 4 4 3 3 3 1 2 2 0 3 3 3 2 3 4 4 5 3 3 4 7 4 4 1 3 3 3 3 3 3 4 5 5 3 2 4 4 5 4 5 6 4 3 5 6 7 9 8 8 8 9 7 7 7 6 7 9 7 5 5 5
9 7 6 7 10 11 11 8 8 7 8 8 7 8 6 6 6 7 5 4 4 4 3 4 4 4 4 4 3 3 3 2 1 1 3 1 3 2 2 2 4 4 4 4 4 4 6 4 3 4 5 4 4 3 2 1 4 3 2 0 2 2 3 4 4 4 4 4 5 6 7 8 5 9 8 8 7 7 6 7 7 8 6 6 6
2 4 6 9 11 11 10 9 7 7 8 7 7 8 7 6 6 6 5 5 4 3 3 4 4 4 4 3 3 3 3 3 1 1 2 3 1 1 1 2 6 4 3 5 6 6 3 2 6 4 3 4 4 2 2 3 4 5 3 1 3 2 2 5 6 4 6 3 4 6 6 6 4 8 9 8 8 7 7 8 8 7 7 6 7
4 6 9 10 10 12 10 9 9 8 8 7 8 7 7 8 6 6 5 4 6 3 4 4 4 3 4 3 3 3 2 4 1 1 3 2 1 0 2 4 3 4 3 3 5 7 6 4 4 4 4 4 3 2 2 2 3 4 4 5 3 3 3 2 2 4 4 5 4 5 6 7 4 6 9 8 8 7 4 8 8 8 8 9 9
7 8 7 7 9 11 10 10 9 8 8 7 8 8 8 8 5 6 5 4 5 3 4 3 4 3 3 3 4 3 3 4 3 2 3 1 0 1 1 1 1 2 5 4 4 4 4 4 3 4 3 2 2 4 2 2 2 4 1 6 3 3 1 2 2 5 4 5 5 2 6 4 4 3 9 9 7 6 6 8 10 9 9 9 7
8 7 2 4 7 10 9 10 9 7 8 7 8 7 8 7 5 4 5 4 4 3 4 2 3 3 3 3 4 3 4 3 3 3 4 2 1 2 1 1 2 1 5 6 5 4 4 4 3 3 0 3 1 0 1 2 2 2 1 1 2 5 2 1 1 1 4 4 5 3 4 5 5 4 3 10 9 7 7 7 7 9 9 8 4
7 5 4 7 7 7 7 7 7 6 7 6 6 7 7 7 6 5 5 4 5 3 3 1 1 3 3 3 3 3 4 4 3 4 4 3 3 3 2 2 0 4 2 4 7 4 4 4 4 3 3 2 2 1 3 4 4 4 4 6 3 4 3 3 2 2 1 2 1 2 2 4 5 5 5 4 9 9 8 7 6 6 7 7 4
4 4 7 7 4 6 6 4 4 4 6 5 7 7 7 5 5 6 4 5 5 4 4 4 2 3 3 2 4 2 7 10 10 9 3 3 1 2 2 1 3 1 0 3 4 4 4 5 3 3 4 5 5 6 6 4 3 3 3 3 3 2 1 1 1 1 3 3 3 2 2 0 3 2 3 4 4 6 7 7 8 6 6 6 8
5 5 4 8 7 6 6 3 2 4 3 7 6 7 7 5 6 6 5 5 4 3 3 4 2 1 3 4 11 10 8 7 7 6 8 5 2 2 2 1 3 2 2 4 3 2 5 7 7 6 7 9 12 9 8 7 6 6 6 5 3 2 1 3 1 1 0 1 1 3 4 4 3 2 3 4 3 2 3 4 5 7 6 5 5
1 5 5 6 8 7 6 4 3 4 2 3 6 7 6 5 5 6 5 4 3 4 3 4 3 1 10 10 8 9 7 5 8 10 7 4 6 1 3 2 2 2 2 4 1 1 7 6 6 10 10 10 10 11 11 11 10 6 3 5 6 5 4 4 3 3 1 1 3 4 3 4 4 5 4 4 4 2 3 1 3 3 3 3 3
3 5 6 6 6 6 5 5 7 4 3 0 5 6 6 5 5 6 5 4 4 4 5 8 9 11 10 9 8 7 6 5 10 8 8 11 7 7 1 4 3 4 1 5 1 1 5 7 5 7 8 7 7 9 10 9 9 9 9 9 6 5 4 5 5 5 4 3 3 4 2 2 2 1 1 1 6 4 3 3 3 1 2 3 4
6 6 6 6 6 4 3 4 4 3 1 8 7 7 5 5 4 4 5 5 7 11 10 9 8 8 8 7 8 7 6 9 10 9 9 10 8 6 6 3 1 1 2 2 3 2 2 4 4 4 3 4 4 4 4 5 6 9 9 7 6 5 4 1 2 4 4 5 5 4 4 2 2 2 2 1 1 2 4 4 4 5 4 4 3
10 9 7 6 4 5 7 9 8 7 5 6 5 8 10 9 8 9 9 8 10 11 10 9 8 8 8 8 8 7 5 11 11 11 10 10 10 7 4 7 3 1 1 0 1 1 1 3 5 4 5 5 3 3 1 2 7 10 8 8 7 7 8 4 2 1 3 3 3 4 3 1 3 2 0 1 1 3 2 3 2 3 3 4 4
11 11 11 9 8 9 8 9 9 7 7 10 10 10 10 9 8 7 8 9 10 10 10 10 9 9 8 7 7 6 6 11 12 11 10 10 9 6 4 4 5 5 5 6 5 5 4 4 5 5 3 4 6 5 4 4 4 3 2 1 1 2 3 2 3 2 2 2 4 5 5 3 3 1 2 1 2 2 2 2 3 4 4 3 1
13 11 12 11 10 9 9 9 10 10 9 11 11 11 11 8 9 8 8 8 8 8 8 9 8 9 8 7 7 6 6 13 13 14 12 10 8 4 3 3 3 4 5 7 12 12 11 9 8 6 4 3 8 7 6 3 2 2 1 0 2 3 3 4 2 0 1 3 4 7 7 5 5 3 1 2 1 0 0 1 2 3 4 3 2
13 12 12 12 11 10 9 10 9 7 9 9 11 10 11 9 8 9 9 8 7 8 8 8 8 10 9 8 9 7 7 15 14 15 14 13 8 4 4 4 5 5 8 8 7 7 10 9 5 4 3 7 8 11 8 5 2 0 1 1 2 3 5 6 8 6 6 5 4 4 6 2 3 1 1 1 1 3 4 4 3 3 4 4 6
13 12 12 11 12 10 10 10 9 9 9 10 10 9 9 9 7 6 9 8 8 8 8 8 8 8 9 8 8 6 6 12 15 15 14 13 7 4 3 3 4 5 5 6 6 8 5 3 1 3 7 6 9 12 11 7 3 4 2 0 2 3 5 4 5 8 10 10 10 9 5 4 5 3 4 4 2 0 1 3 5 4 4 6 6
11 11 11 10 10 10 9 9 10 9 10 11 10 8 7 6 6 5 7 7 8 7 7 8 8 8 7 7 6 6 7 10 14 13 13 14 9 1 3 7 9 8 7 6 5 7 9 14 10 7 7 5 5 10 11 7 4 5 5 6 5 4 3 6 6 3 7 10 10 9 9 9 8 8 8 8 8 5 4 7 5 2 6 6 7
11 10 8 8 9 9 8 9 9 9 10 10 9 9 8 8 6 7 7 7 6 5 7 7 7 6 6 6 7 8 6 8 12 11 12 13 10 5 6 7 8 8 7 7 5 6 5 8 13 10 7 7 11 11 11 7 3 3 3 3 4 3 4 5 6 7 7 7 7 6 6 9 8 7 8 12 12 9 7 7 4 5 6 7 6
8 8 8 8 7 7 8 9 9 9 9 9 8 8 6 7 8 7 6 5 6 6 7 7 7 6 6 6 6 6 5 5 7 9 10 12 13 9 8 9 8 7 7 6 7 5 5 4 7 8 9 8 8 8 8 8 5 2 2 1 2 2 6 7 7 6 8 8 9 9 7 5 5 4 4 4 5 7 7 6 5 5 6 6 5
8 8 7 7 8 8 6 7 8 8 7 7 7 7 6 6 5 7 7 6 7 7 7 6 6 6 5 6 6 5 4 3 4 9 11 14 14 11 7 7 6 5 4 3 2 2 1 3 4 5 6 6 6 5 4 3 2 0 1 2 2 1 3 4 7 8 7 7 8 8 8 6 6 6 5 6 6 6 6 6 6 5 4 5 6
9 8 7 8 8 7 7 7 7 7 6 8 7 6 5 6 5 6 5 5 6 7 6 5 5 5 4 5 5 5 4 5 4 8 11 12 13 13 8 6 4 4 4 3 2 2 2 4 3 3 3 2 1 2 3 2 1 2 4 6 6 5 3 3 5 5 5 6 6 6 6 6 6 6 6 5 4 5 5 5 4 3 5 4 2
9 9 8 7 6 7 7 6 6 5 6 5 6 5 4 7 4 3 4 4 4 4 4 4 4 4 5 4 5 5 4 4 7 6 8 11 11 11 9 5 2 1 2 2 3 5 5 4 3 7 8 8 7 5 5 5 5 4 8 8 7 2 2 3 3 4 5 5 5 6 6 7 7 8 8 5 1 3 3 3 4 5 6 6 5
9 9 8 6 7 7 7 6 5 4 4 5 4 3 2 3 2 1 4 5 4 4 4 5 5 5 5 6 7 6 5 5 5 8 6 7 8 7 7 7 7 5 4 2 3 4 5 4 4 9 10 11 11 11 11 8 7 10 10 9 6 2 2 3 4 5 5 5 5 6 6 6 7 7 7 5 2 4 5 4 5 5 7 7 7
8 8 9 9 7 6 5 5 5 5 5 3 3 3 3 2 4 0 3 4 2 2 2 2 2 3 3 5 5 6 6 6 4 4 4 3 2 2 2 3 6 6 4 4 6 5 8 10 12 14 15 15 15 13 9 9 11 10 10 8 5 2 3 4 5 5 5 5 5 6 6 5 5 5 2 4 4 5 5 5 6 6 6 8 8
7 6 6 6 8 8 7 7 8 6 4 5 5 5 6 8 8 7 5 3 3 4 3 2 3 2 3 5 4 4 6 6 6 4 3 1 1 2 4 4 5 4 3 6 9 11 10 10 12 12 11 10 8 6 6 7 9 10 8 3 3 3 4 4 5 5 6 4 3 4 4 4 4 2 2 3 3 4 4 5 6 5 5 5 6
4 5 5 4 5 7 8 7 7 9 9 8 7 8 8 8 8 8 7 7 8 7 7 8 7 6 5 3 5 10 8 7 7 6 6 6 6 6 6 5 5 6 1 3 7 6 8 8 8 11 12 14 13 12 11 12 10 9 7 5 5 6 6 6 6 7 4 3 4 4 6 5 5 3 2 1 4 4 3 4 5 4 5 4 5
7 6 5 4 4 3 4 7 8 7 8 8 7 7 8 8 7 7 6 6 6 6 7 7 7 7 6 6 6 7 7 6 6 6 6 5 6 5 5 5 5 5 5 5 6 7 7 8 9 7 7 7 6 5 6 7 7 7 7 6 6 7 8 8 7 2 6 6 6 5 5 6 7 6 3 4 5 5 4 4 4 3 3 3 3
6 8 8 6 5 3 2 4 5 6 7 8 6 5 4 5 7 6 5 4 4 4 5 5 5 5 6 7 6 6 5 6 4 3 3 3 2 4 5 5 5 5 5 7 8 6 6 5 5 6 6 2 3 3 3 3 2 1 2 4 6 5 2 0 2 6 3 5 5 6 4 5 6 8 4 2 3 3 2 4 4 4 3 3 4
3 4 3 4 6 4 2 1 5 8 7 5 5 6 9 12 7 6 3 4 10 11 8 5 3 3 6 7 6 5 4 2 1 3 3 3 3 3 4 5 4 5 7 8 5 4 4 5 5 6 4 3 3 7 6 6 6 5 6 7 6 6 7 7 5 3 5 4 4 5 6 5 5 6 6 5 5 6 6 6 4 5 4 3 4
3 3 3 4 6 3 3 4 2 2 7 8 6 5 5 8 13 13 10 6 7 9 10 10 11 10 6 5 6 10 7 3 0 1 2 2 3 3 5 4 4 5 6 5 2 2 4 6 5 3 4 4 5 4 5 5 5 6 5 5 6 6 6 6 6 5 5 5 5 6 5 5 4 4 5 5 6 6 6 6 6 6 6 5 5
6 5 2 2 3 5 3 3 2 2 2 3 8 6 6 6 5 6 7 7 6 6 6 7 8 10 10 7 4 3 4 3 5 5 5 5 5 6 6 5 4 4 4 2 2 4 4 4 6 5 6 7 5 7 5 4 5 5 5 6 7 6 5 6 6 8 6 6 6 5 5 4 4 4 5 4 5 6 6 5 6 6 6 5 5
3 3 3 4 5 2 2 3 3 3 3 3 2 6 7 5 6 4 3 4 5 6 6 6 5 6 9 8 7 5 2 3 5 6 6 7 7 6 7 7 2 5 4 2 3 5 6 6 6 8 7 7 6 6 7 6 6 5 5 5 5 5 5 5 6 6 5 5 6 4 3 3 4 4 4 4 4 4 4 4 4 5 5 5 4
3 3 4 6 4 1 2 3 4 1 3 2 2 3 4 1 6 6 6 5 4 4 3 2 3 4 5 7 6 3 0 2 4 5 7 9 10 11 5 2 3 4 3 3 5 5 6 7 7 7 7 7 7 6 6 6 5 6 5 6 6 6 7 5 5 4 5 6 5 4 3 4 4 4 4 4 3 3 4 4 3 4 4 3 3
3 0 4 4 6 6 5 6 6 7 8 3 1 2 2 1 1 4 6 7 7 5 4 3 4 5 3 4 5 4 2 2 5 8 10 11 12 12 7 4 4 4 3 6 6 6 6 7 7 7 7 7 6 5 6 7 6 5 4 4 6 7 6 6 4 4 5 5 5 4 4 3 3 3 3 3 3 4 4 4 4 2 1 2 3
4 1 1 3 5 5 4 3 2 4 3 6 6 2 1 3 1 1 1 5 6 7 5 5 4 4 6 7 7 5 4 1 3 7 8 10 11 9 5 4 4 5 5 6 6 5 5 6 6 5 5 5 6 5 6 6 6 6 7 6 7 5 5 5 4 4 4 5 3 3 4 3 3 3 3 3 2 1 0 0 1 2 2 3 3
4 5 5 5 4 3 2 3 2 3 4 4 4 5 1 0 2 6 7 4 4 5 7 6 5 2 3 2 4 2 3 1 2 4 7 8 8 5 4 5 4 4 4 5 5 5 6 5 5 4 5 5 6 6 6 6 7 8 7 6 6 4 4 4 5 5 5 5 4 5 4 4 4 4 3 3 2 2 1 0 1 1 1 1 3
6 5 3 2 1 2 5 2 3 6 6 4 2 5 4 3 4 5 4 2 2 3 7 6 4 4 5 4 6 2 2 3 1 4 5 7 5 4 4 4 5 5 5 5 5 5 5 4 4 5 6 6 6 6 4 6 5 4 4 4 3 3 5 5 6 6 6 6 6 6 6 6 5 5 4 4 3 3 2 3 4 4 5 4 3
4 4 2 2 1 1 4 3 1 4 4 2 3 3 3 4 6 4 3 1 1 3 7 7 6 5 4 5 5 6 4 5 4 4 4 4 4 4 4 5 5 5 5 5 4 4 4 5 5 5 5 5 5 5 4 3 3 4 4 4 4 4 4 4 5 5 5 5 4 4 4 4 4 4 4 3 3 2 4 4 5 4 5 4 4
5 3 3 4 2 2 2 3 3 2 1 3 3 2 1 2 0 1 3 4 4 5 4 6 5 4 3 3 4 4 4 4 4 3 3 3 3 4 4 3 4 5 4 5 4 4 4 4 5 4 4 4 5 5 5 3 3 3 3 4 4 5 5 5 5 5 4 4 4 3 3 3 1 2 2 4 4 4 4 4 2 2 1 4 2
2 4 3 2 2 1 2 3 1 2 4 6 3 2 4 4 4 1 4 2 2 4 5 6 4 2 1 4 5 3 5 4 4 2 2 2 2 3 3 3 4 6 5 4 3 3 3 4 4 3 3 3 4 3 4 4 4 3 3 3 3 3 4 4 4 3 3 2 1 1 2 2 2 2 3 4 6 5 3 2 1 2 3 3 3
2 5 3 1 2 4 3 3 4 2 3 2 3 4 2 1 5 6 5 4 4 3 4 5 4 2 2 3 5 5 5 3 3 2 2 3 3 3 2 4 5 5 4 3 4 3 3 4 3 3 3 4 5 4 4 4 4 5 5 5 4 3 2 1 1 1 2 3 3 3 2 1 1 2 4 5 4 3 3 6 5 3 2 3 2
4 3 1 1 3 3 2 2 5 7 5 4 3 4 5 4 1 2 6 6 5 4 3 1 2 4 1 0 3 4 4 4 4 3 4 3 4 4 5 4 4 5 4 4 3 4 4 4 3 3 3 3 3 4 4 5 4 4 4 4 4 4 4 4 4 3 2 2 2 3 4 4 4 3 5 6 6 3 5 5 6 5 6 6 6
5 3 2 1 3 1 3 2 5 7 4 4 3 4 5 4 1 2 3 3 2 2 3 1 2 1 2 5 4 1 3 2 2 3 4 4 3 4 4 3 4 4 4 4 4 4 4 3 2 1 1 2 2 3 3 3 4 4 4 4 4 4 4 4 4 4 4 1 0 1 1 3 4 3 5 5 5 6 5 5 6 6 5 5 5
4 5 3 1 1 3 3 4 8 6 3 2 1 2 4 4 1 2 1 2 3 2 1 0 1 1 1 4 3 2 4 4 3 3 3 4 4 3 3 3 4 4 3 3 3 3 4 4 4 4 4 4 3 3 3 4 4 4 4 5 5 5 6 6 4 3 3 5 4 2 2 2 4 3 4 4 4 3 3 3 4 5 5 3 4
4 5 3 2 2 0 1 5 6 5 5 2 1 3 2 1 1 2 2 1 2 1 1 2 0 1 1 3 2 3 3 3 4 3 3 3 4 3 3 3 3 4 3 3 3 4 3 3 3 3 3 2 3 2 2 2 3 4 4 5 5 5 5 5 6 6 6 5 5 4 5 3 3 2 4 6 3 4 4 2 0 0 1 3 0
3 4 4 2 2 1 2 1 3 5 4 2 0 1 2 1 1 3 5 4 1 2 3 4 5 3 2 2 3 2 2 2 3 4 5 5 4 4 2 2 3 4 4 3 3 3 3 3 2 2 2 2 2 3 2 3 4 4 4 4 4 5 5 6 5 4 4 5 6 4 3 5 5 3 3 4 6 5 6 3 4 2 0 1 2
3 4 4 2 1 2 1 4 6 5 2 5 1 1 1 1 3 2 5 2 2 4 3 3 3 2 1 2 3 2 3 3 3 4 5 4 4 3 2 2 2 3 4 4 4 3 3 2 1 1 2 3 4 4 5 5 4 4 4 4 4 5 7 7 4 6 6 6 7 5 5 5 5 4 2 2 2 3 3 4 6 6 5 2 0
3 2 4 4 2 2 1 8 5 4 4 5 4 3 3 4 2 2 3 4 4 3 3 2 2 2 2 1 2 4 1 0 2 6 4 4 4 4 3 2 2 3 4 4 4 3 2 1 2 3 4 4 4 4 4 4 4 4 4 4 6 10 10 10 6 6 9 6 6 6 4 4 4 5 5 6 6 6 6 5 5 5 5 5 7
2 1 4 5 2 2 2 2 1 5 5 5 6 5 5 4 2 3 4 3 3 2 1 1 1 1 2 2 2 2 4 4 4 5 5 4 4 4 3 3 3 3 3 3 3 2 3 3 3 3 3 4 4 4 4 4 3 3 3 4 7 9 10 11 9 10 8 5 6 4 6 6 5 5 5 5 5 5 6 5 5 6 5 6 6
1 2 5 4 3 2 2 2 2 2 5 8 6 5 5 3 3 3 2 2 3 2 2 1 2 1 1 2 1 2 6 3 4 6 6 4 4 4 3 2 2 3 1 1 3 3 2 3 4 4 3 4 4 4 3 3 3 2 3 6 8 9 9 9 7 10 12 9 5 5 5 5 5 5 5 5 4 3 5 4 4 4 4 5 6
Wind_Direction
204 198 181 173 165 166 167 169 164 157 151 140 145 145 149 130 136 122 104 117 125 141 173 149 125 126 143 154 163 158 111 171 228 122 138 179 190 133 181 181 159 145 121 129 121 172 111 157 139 138 159 174 169 197 208 199 182 159 88 74 97 122 147 123 131 124 81 126 135 144 154 166 172 156 154 158 170 198 202 142 151 168 185 174 180
199 194 189 180 173 169 170 165 153 156 144 144 149 143 137 137 123 123 127 130 143 163 169 138 130 160 147 161 146 162 147 181 114 127 152 158 90 207 204 221 121 113 145 123 119 141 135 157 121 165 191 145 175 199 213 155 102 98 81 93 80 55 63 112 117 132 137 129 139 137 152 183 163 156 153 155 172 198 166 155 164 176 196 176 184
184 191 179 205 174 168 166 160 151 152 143 145 150 140 134 120 115 122 136 133 161 174 149 145 149 173 140 147 153 141 173 134 136 165 94 97 154 263 269 70 98 111 100 135 146 109 79 162 163 171 136 153 206 219 195 217 171 131 155 194 109 74 24 122 135 136 145 174 175 149 156 195 176 160 156 162 175 199 156 165 173 187 202 190 187
138 174 210 200 178 165 161 157 154 158 151 150 146 142 132 128 131 139 149 152 161 181 133 161 145 176 140 140 148 149 173 121 172 167 111 125 249 7 44 79 96 131 133 135 122 137 156 168 152 147 154 159 219 155 239 280 319 143 139 80 90 46 56 31 148 127 147 150 216 166 160 179 220 172 154 161 169 203 179 171 178 191 206 209 196
139 188 205 213 182 167 156 155 155 156 148 150 145 139 126 129 145 148 144 156 151 140 128 157 142 166 136 149 136 168 157 146 169 115 124 152 156 79 68 129 216 168 145 111 90 105 117 110 137 138 166 148 106 141 255 353 318 70 68 124 160 129 95 13 25 138 136 154 197 234 152 163 199 222 155 162 175 193 218 173 188 192 201 216 220
167 198 188 266 192 166 151 151 153 149 148 150 142 138 128 133 136 136 152 145 119 145 133 152 153 142 148 163 139 174 146 162 154 157 142 148 164 118 274 167 244 213 113 130 120 116 133 141 122 122 99 96 136 251 120 238 353 108 241 52 110 126 115 79 339 75 140 167 168 211 147 171 188 221 197 166 169 182 202 214 200 196 192 200 124
191 144 179 225 202 136 132 108 135 145 148 147 136 128 126 132 149 143 131 118 111 94 108 124 85 131 174 156 140 136 142 178 166 142 132 167 130 196 193 200 209 72 102 130 138 153 158 129 129 147 140 190 197 96 76 27 40 17 32 10 46 79 100 174 187 168 223 145 144 186 191 199 173 188 239 217 171 177 187 195 228 217 195 157 149
155 137 171 198 154 145 138 125 122 92 133 129 119 123 125 138 135 122 127 123 128 144 168 147 199 141 167 137 135 99 57 40 24 11 345 134 163 145 127 184 93 111 28 94 111 139 128 132 123 74 70 55 50 47 41 22 25 355 47 41 42 88 47 177 16 79 163 167 174 202 266 342 217 219 208 247 209 204 189 179 200 218 217 178 162
167 143 188 151 139 130 132 111 100 76 83 129 133 132 135 138 126 137 128 128 146 136 132 133 148 167 129 63 61 60 61 44 26 6 352 353 105 144 162 154 131 143 105 86 80 71 83 73 79 97 89 83 81 78 67 57 49 37 9 19 29 34 358 345 142 231 173 144 195 179 192 234 241 230 264 271 255 237 245 196 194 198 198 198 175
66 148 149 145 120 122 140 126 116 91 69 119 133 131 132 126 117 112 109 115 124 111 112 121 163 144 80 67 67 60 56 54 15 18 19 357 343 277 166 137 123 106 95 97 101 132 104 99 94 94 82 78 82 80 75 65 61 67 50 32 31 22 15 0 357 346 348 182 220 200 204 215 215 222 236 251 254 297 329 274 249 245 203 213 230
112 92 115 100 112 123 139 148 128 128 124 62 144 137 135 119 117 125 128 137 118 106 72 51 46 52 68 75 74 71 57 25 6 11 15 28 22 359 240 142 164 144 184 125 165 66 121 118 117 101 103 102 85 84 85 84 81 73 64 61 47 47 20 9 358 358 4 354 2 359 1 330 301 9 263 316 311 297 261 247 217 231 217 228 255
70 53 71 114 123 102 87 109 108 120 147 196 159 141 112 92 90 84 90 80 79 78 75 74 72 73 70 68 66 69 66 17 8 7 23 31 28 2 9 5 49 63 92 121 149 143 130 129 121 125 123 121 126 101 82 86 86 62 47 35 33 40 104 101 359 351 7 1 352 336 345 310 337 1 321 5 241 338 307 302 269 246 252 257 247
43 49 58 99 115 71 69 82 91 95 72 65 67 80 81 78 71 65 64 63 71 75 75 72 65 63 63 62 59 47 54 17 4 7 12 32 22 11 28 6 6 350 60 37 33 57 83 101 128 74 63 57 58 46 101 124 71 63 62 30 13 353 333 332 3 5 345 331 318 302 289 344 327 289 280 284 319 284 278 291 290 289 266 257 243
41 40 42 40 69 94 93 93 89 83 74 74 77 78 76 72 71 68 65 65 70 74 71 69 64 59 55 58 59 41 41 359 5 9 2 16 26 18 19 8 2 6 22 28 14 18 16 27 75 91 60 35 38 32 41 64 98 101 65 28 318 327 3 349 286 276 187 252 284 275 278 304 283 276 283 352 352 302 338 314 342 336 319 283 294
34 34 40 34 37 55 69 76 79 74 77 84 79 77 77 64 68 63 63 62 70 75 79 80 78 77 64 61 64 48 22 4 8 9 1 354 19 33 13 351 358 6 11 28 24 9 2 13 57 53 34 58 56 11 13 33 98 108 108 117 287 300 300 298 277 248 241 234 248 265 271 265 261 273 11 43 43 325 262 240 251 251 261 269 281
36 30 35 34 38 42 56 67 70 66 68 66 78 78 75 63 59 76 77 73 74 84 82 78 76 74 72 63 63 45 22 14 10 10 1 344 351 43 31 21 17 18 45 47 53 32 17 7 40 64 41 47 32 43 32 4 345 111 139 227 258 266 267 252 251 247 247 256 251 266 282 233 134 104 91 37 351 353 346 338 326 302 288 283 267
41 35 33 32 36 33 45 56 61 63 61 69 71 73 83 85 65 59 74 72 72 73 80 78 73 75 68 65 63 47 30 15 13 11 1 346 332 57 69 63 49 60 52 67 60 63 58 289 32 61 67 45 26 37 28 27 6 340 320 290 267 304 304 312 274 254 254 250 252 259 265 264 257 195 170 182 186 165 1 318 277 269 285 274 267
39 44 40 32 39 43 40 52 60 59 65 63 60 58 61 70 88 88 89 89 82 77 85 81 76 75 82 83 76 65 50 21 19 13 5 356 313 260 88 57 50 39 43 60 70 66 41 28 38 78 85 72 52 53 35 38 35 18 13 351 319 291 340 2 355 327 248 265 276 262 247 245 240 236 230 219 203 183 187 234 238 238 249 243 256
30 35 36 43 45 44 45 50 52 57 63 60 56 56 53 54 53 63 63 65 64 68 73 82 81 72 72 83 90 76 54 29 18 12 16 12 6 21 45 70 54 37 33 28 52 98 61 44 45 49 57 45 44 45 38 27 57 23 25 327 335 348 57 347 345 336 337 333 313 292 276 254 242 235 235 218 204 199 206 220 221 223 246 253 259
26 27 34 37 42 57 56 57 56 54 56 57 56 60 61 56 50 61 73 80 84 83 78 74 73 65 57 53 49 56 70 49 16 14 26 31 29 41 36 49 48 37 30 23 7 43 88 76 46 38 49 46 51 48 49 46 41 16 350 322 289 311 7 336 331 334 322 312 305 302 281 269 264 251 249 205 196 201 204 204 205 214 239 256 258
30 32 35 37 39 42 46 58 72 72 67 64 62 58 54 62 62 69 74 74 76 74 80 84 90 94 86 83 78 62 73 78 36 28 38 40 37 42 53 52 45 37 31 9 4 340 11 122 99 39 36 29 22 19 41 60 105 265 232 248 282 241 321 316 313 317 292 280 275 274 280 272 256 242 234 220 206 201 202 202 206 210 223 246 252
23 22 31 42 43 44 45 43 48 64 76 78 73 67 66 70 70 78 82 91 96 100 105 116 110 115 119 112 103 102 88 89 72 38 45 49 47 43 54 63 68 36 356 329 283 258 281 84 67 54 36 59 5 316 307 278 259 252 249 240 263 304 319 279 291 281 283 294 294 290 285 281 271 258 251 241 248 208 190 193 177 116 83 68 34
16 15 16 23 36 50 50 48 50 51 55 65 81 89 97 97 108 126 115 113 112 128 141 144 143 142 157 145 135 123 112 84 71 59 47 53 47 47 43 54 22 39 14 338 351 335 47 53 12 357 341 335 329 315 289 281 259 232 241 250 249 230 211 244 253 271 270 276 289 291 292 290 292 287 287 294 263 147 136 127 113 98 85 66 51
17 21 12 6 37 35 40 44 42 48 65 71 74 91 90 98 76 139 175 155 159 165 163 167 165 170 160 157 145 135 117 100 79 84 72 55 51 47 26 7 355 2 2 324 327 0 6 356 334 320 325 326 325 326 318 299 277 285 291 285 291 288 240 254 239 237 242 245 255 263 270 271 277 276 273 278 166 107 104 92 84 82 77 69 54
22 27 20 7 8 59 46 39 44 42 31 32 52 41 47 85 132 206 43 39 58 92 91 95 87 95 107 113 129 124 121 103 108 100 96 99 87 54 345 332 320 8 346 347 8 355 336 328 330 329 325 321 320 320 313 303 292 286 287 291 304 257 234 227 240 249 253 250 241 247 257 268 289 322 359 88 100 85 85 75 71 72 75 71 62
21 22 27 22 13 21 33 32 25 27 38 40 36 37 38 35 27 19 24 43 56 49 52 67 84 73 71 77 89 109 96 93 79 75 62 73 320 274 262 254 265 229 244 292 299 305 306 300 300 301 304 301 307 307 303 301 314 314 302 292 256 234 231 242 254 248 247 264 304 316 334 21 359 312 8 55 91 115 118 105 94 73 74 80 78
12 24 23 26 44 37 38 36 37 30 23 23 31 34 41 43 36 28 27 12 16 26 34 29 30 30 34 44 69 67 62 51 41 38 25 18 16 4 3 353 321 318 352 18 354 344 324 318 297 290 279 276 272 271 274 286 295 292 283 250 242 243 245 242 251 257 278 331 333 354 10 359 322 338 14 29 53 42 64 98 93 89 82 76 84
10 7 13 13 21 58 71 73 62 54 42 39 32 31 48 58 52 44 24 18 16 26 36 38 30 19 16 13 34 74 56 51 33 18 16 8 7 359 360 0 4 359 2 356 339 321 315 302 298 281 274 265 262 254 252 252 259 270 272 262 244 232 240 254 269 333 33 36 38 22 10 4 1 343 11 51 57 51 61 73 92 99 105 96 71
32 17 360 354 358 9 75 102 94 75 63 51 41 30 8 58 75 69 45 29 39 24 41 49 27 12 36 30 26 50 47 40 21 350 1 11 2 359 350 352 349 340 8 355 323 305 299 299 289 307 286 316 332 340 357 11 341 313 347 3 359 353 352 346 28 59 28 36 39 36 15 6 5 355 320 87 80 78 62 79 72 111 110 98 116
63 40 16 7 341 345 24 92 132 133 114 100 78 54 38 37 47 101 99 69 71 64 72 74 28 356 54 52 40 64 56 46 303 309 346 353 346 287 290 290 283 285 299 306 277 282 299 306 303 279 309 332 357 22 8 10 3 1 360 3 358 5 25 25 37 64 60 51 44 45 25 22 18 21 5 7 50 45 33 51 42 55 67 67 89
80 109 28 354 342 345 22 353 23 115 146 144 126 112 94 49 39 40 59 78 81 98 98 91 68 51 50 91 77 87 115 131 224 281 298 274 258 258 265 276 286 297 320 352 347 279 288 278 275 312 330 357 55 37 32 21 6 359 358 357 352 26 41 27 7 11 31 37 42 54 40 36 37 26 52 28 40 40 37 35 52 49 53 42 53
15 355 9 1 11 12 15 354 353 31 29 126 141 134 120 113 76 54 62 72 75 72 82 87 90 90 78 77 96 120 90 54 10 356 350 345 332 317 303 290 274 253 279 196 291 295 291 321 360 3 12 23 26 36 25 15 8 360 359 1 354 358 42 23 19 41 30 29 31 44 36 40 44 57 54 52 56 54 49 47 49 53 46 45 46
19 12 344 356 321 88 18 355 2 12 13 13 59 136 145 135 124 121 58 63 84 88 81 84 87 104 108 91 78 92 96 335 347 346 341 332 328 322 305 297 193 165 171 234 312 342 0 10 11 16 21 18 8 16 6 8 358 2 6 16 18 4 15 27 52 38 44 40 53 48 44 42 51 56 56 54 64 67 57 59 51 58 53 51 23
44 39 23 340 308 356 34 18 336 89 120 74 13 40 39 96 141 137 137 143 129 90 76 32 71 103 95 114 122 140 219 323 333 341 347 351 354 357 12 306 65 140 67 4 19 13 13 13 18 13 15 8 5 4 2 0 2 360 9 30 3 14 12 26 39 46 42 45 53 51 42 41 48 63 54 45 45 58 59 56 39 45 31 34 3
106 70 323 327 1 19 23 21 352 2 356 355 28 31 87 121 81 146 166 159 142 134 141 158 201 232 203 138 144 159 147 356 348 345 353 354 354 344 1 38 24 37 42 36 30 21 21 20 13 14 7 2 353 352 360 355 353 356 14 27 16 19 14 12 29 29 56 55 54 57 59 59 46 52 65 61 45 44 44 34 31 26 13 330 326
143 122 358 345 22 7 11 62 356 339 359 338 342 346 358 334 12 140 41 45 112 135 130 140 147 218 212 146 156 159 158 169 346 346 332 345 347 7 35 26 43 32 41 30 23 25 40 36 17 12 3 355 351 346 354 348 351 14 11 30 39 21 8 0 358 24 56 59 54 54 48 39 38 57 70 74 81 81 348 300 268 253 228 235 244
54 56 37 10 5 350 339 70 12 355 321 321 315 294 63 38 340 39 41 30 20 120 141 128 123 116 245 202 169 187 215 253 252 315 328 341 2 34 47 46 41 38 38 42 23 25 36 31 18 360 0 9 6 355 345 352 22 28 16 40 46 32 19 19 30 48 55 55 49 51 54 47 39 25 27 55 40 37 63 206 244 289 305 293 22
82 64 46 338 332 341 289 77 5 313 289 250 322 360 13 17 38 74 75 44 311 320 87 72 59 55 48 61 178 189 193 221 333 12 31 26 32 34 41 58 47 36 37 38 34 25 38 26 19 15 16 13 4 355 4 22 31 24 17 33 58 50 23 33 32 43 43 41 33 28 26 22 19 22 32 44 32 2 350 320 313 330 316 4 9
96 110 126 212 142 309 322 53 11 299 326 39 85 74 355 352 27 21 93 98 28 44 69 71 60 39 44 13 12 353 63 62 52 39 40 31 31 47 51 49 52 44 36 38 28 29 35 29 29 26 16 8 358 354 12 25 32 34 42 40 44 45 45 33 35 42 46 44 37 26 29 20 21 16 12 358 323 273 249 256 280 284 270 244 227
142 142 190 250 226 220 3 334 271 299 327 48 42 22 334 355 117 129 63 32 31 46 58 68 62 60 33 2 7 353 53 72 58 41 46 43 39 41 52 56 56 58 48 41 33 25 32 38 36 28 17 6 358 0 350 17 48 54 61 65 66 59 51 58 57 52 47 44 38 27 28 24 356 316 302 289 271 291 304 289 272 220 31 24 11
136 148 179 195 13 27 178 247 357 61 20 29 7 25 35 336 333 42 108 105 67 72 69 75 83 76 39 339 345 20 68 64 66 47 49 79 72 49 40 59 68 66 63 54 43 17 38 52 53 34 13 357 353 358 6 10 19 26 41 65 69 70 78 88 96 98 97 83 33 308 286 280 308 339 321 305 293 281 283 308 290 26 30 61 45
343 148 197 158 175 228 236 169 136 100 92 100 19 21 359 311 36 2 44 53 63 81 114 119 116 114 48 6 21 58 91 79 72 67 47 52 65 61 45 49 66 77 76 69 52 34 43 58 58 40 23 0 348 354 3 19 17 22 18 28 38 43 52 44 50 65 52 44 19 356 332 305 259 245 268 297 321 33 23 16 4 30 42 60 36
312 318 287 160 200 216 336 9 86 69 51 46 46 42 334 336 74 53 40 32 39 39 62 76 122 125 120 212 8 350 96 101 112 79 63 36 35 49 44 39 38 52 59 58 58 48 46 54 59 48 23 4 359 4 9 4 4 30 44 42 37 38 38 32 29 33 52 33 2 14 13 354 345 352 355 346 331 15 36 24 33 23 27 37 43
297 278 251 145 278 262 165 77 71 89 70 54 44 33 326 301 340 47 96 110 103 86 73 358 323 301 161 191 225 104 81 74 89 103 95 79 58 54 59 56 50 53 50 41 27 28 55 63 63 72 104 69 46 22 15 8 12 18 16 34 40 32 30 27 18 6 345 337 287 326 319 310 316 12 17 350 9 30 26 29 27 22 6 42 54
291 295 301 294 260 22 340 91 99 101 118 126 186 169 251 271 111 84 74 107 108 119 145 194 202 194 60 58 59 103 126 120 78 68 94 101 86 66 62 68 66 60 70 68 49 41 30 41 39 21 12 26 17 38 27 15 16 25 27 18 18 19 11 360 353 347 350 352 349 350 347 2 357 31 12 348 18 13 43 42 37 9 4 10 71
266 279 286 303 342 323 277 105 116 116 117 123 272 273 263 283 126 134 127 83 82 120 172 195 257 24 117 152 141 74 73 92 100 97 81 73 80 71 63 67 80 79 69 81 88 67 50 50 46 31 24 36 7 9 51 44 45 35 32 32 19 16 358 344 337 334 354 348 334 356 348 8 60 29 5 341 2 15 348 355 70 74 323 328 355
275 290 293 298 303 281 75 45 115 116 113 116 156 301 297 289 68 86 70 64 47 260 226 196 188 181 201 151 111 112 101 97 117 124 99 85 84 83 60 59 101 90 79 60 62 91 87 66 56 57 31 351 3 1 30 51 50 52 53 39 22 5 2 341 333 356 360 347 336 334 12 38 3 3 4 2 354 9 339 325 334 334 103 73 24
223 260 269 273 239 294 141 108 123 150 133 117 140 292 331 290 242 163 133 147 192 230 233 215 166 143 178 93 124 119 103 117 123 102 102 108 96 83 67 31 38 94 103 87 71 55 54 57 69 37 52 37 39 38 30 30 42 34 36 39 23 2 343 339 347 3 358 353 346 339 39 22 11 345 14 11 354 337 330 1 3 352 347 330 167
224 251 276 265 264 255 211 137 166 156 146 141 148 170 222 229 209 169 149 181 203 216 216 197 121 166 133 139 144 123 148 197 94 95 103 101 97 99 84 65 38 55 79 96 108 111 101 62 45 41 50 51 51 54 47 37 33 35 27 24 359 354 1 2 7 2 352 343 345 341 17 20 16 360 7 5 5 18 356 6 9 345 342 338 337
196 242 271 274 255 236 265 270 209 148 147 157 166 174 189 217 205 200 193 180 176 199 274 325 280 119 143 148 91 138 157 141 111 109 103 98 103 107 100 83 52 47 66 78 77 98 121 113 85 80 75 75 63 56 55 51 44 35 27 5 350 1 6 3 3 3 357 348 341 357 18 14 6 9 2 13 6 14 12 351 344 345 346 330 315
295 250 273 275 275 267 276 250 234 257 163 173 170 163 178 192 194 188 205 189 156 160 163 203 284 309 98 107 205 39 25 50 100 104 105 106 103 95 97 114 132 123 95 94 116 90 54 87 99 90 83 82 84 86 76 71 62 50 30 10 15 8 9 7 0 348 354 1 350 15 18 9 1 3 356 348 340 12 355 330 323 327 324 314 306